Location: Alafon
(8.4500°N, 4.2333°E)
Time: 02:43:02
(UTC+00:00)

Vanguard 2 - Pass Details

Date: 03 August 2021
Orbit: 553 x 2937 km, 32.9° (Epoch: 27 September)

Event Time Altitude Azimuth Distance (km) Brightness Sun altitude
Rises 13:28:48 0° 270° (W) 5,422 12.2 64.2°
Reaches altitude 10° 13:33:01 10° 257° (WSW) 4,773 12.1 63.2°
Maximum altitude 13:43:50 25° 208° (SSW) 4,294 11.7 60.7°
Drops below altitude 10° 13:56:57 10° 160° (SSE) 5,764 11.9 57.7°
Sets 14:02:56 0° 148° (SSE) 6,745 12.1 56.3°
